Weather History for KOKV - February, 2013

Change the Weather History Date:

Thursday, February 21, 2013

  Actual Average Record
Temperature  
Mean Temperature 28 °F -  
Max Temperature 33 °F 46 °F 73 °F (1997)
Min Temperature 23 °F 28 °F 10 °F (2015)
Degree Days  
Heating Degree Days 37    
Moisture  
Dew Point 16 °F    
Average Humidity 62    
Maximum Humidity 69    
Minimum Humidity 52    
Precipitation  
Precipitation 0.00 in - - ()
Sea Level Pressure  
Sea Level Pressure 30.20 in    
Wind  
Wind Speed 12 mph (NW)    
Max Wind Speed 21 mph    
Max Gust Speed 26 mph    
Visibility 10 miles    
Events      
Averages and records for this station are not official NWS values.
T = Trace of Precipitation, MM = Missing Value Source: NWS Daily Summary

Daily Weather History Graph

Daily Weather History Graph

Search for Another Location

Airport or City:

Trip Planner

Search our weather history database for the weather conditions in past years. The results will help you decide how hot, cold, wet, or windy it might be!

Date:

Astronomy

Feb. 21, 2013 Rise Set
Actual Time 6:56 AM EST 5:56 PM EST
Civil Twilight 6:29 AM EST 6:23 PM EST
Nautical Twilight 5:57 AM EST 6:55 PM EST
Astronomical Twilight 5:26 AM EST 7:25 PM EST
Moon 2:10 PM EST (2/21) 3:58 AM EST (2/21)
Length of Visible Light 11h 54m
Length of Day
11h 00m
Waxing Gibbous, 83% of the Moon is Illuminated
Feb 21
Waxing Gibbous
Feb 25
Full
Mar 4
Last Quarter
Mar 11
New
Mar 19
First Quarter

Hourly Weather History & Observations

Time (EST) Temp. Windchill Dew Point Humidity Pressure Visibility Wind Dir Wind Speed Gust Speed Precip Events Conditions
12:15 AM 23.0 °F 9.6 °F 12.2 °F 63% 30.13 in 10.0 mi WNW 16.1 mph 20.7 mph N/A   Scattered Clouds
12:35 AM 23.0 °F 12.4 °F 12.2 °F 63% 30.14 in 10.0 mi WNW 10.4 mph 21.9 mph N/A   Scattered Clouds
12:55 AM 23.0 °F 12.4 °F 12.2 °F 63% 30.14 in 10.0 mi WNW 10.4 mph - N/A   Mostly Cloudy
1:15 AM 23.0 °F 11.1 °F 12.2 °F 63% 30.13 in 10.0 mi WNW 12.7 mph 18.4 mph N/A   Mostly Cloudy
1:35 AM 23.0 °F 12.4 °F 12.2 °F 63% 30.13 in 10.0 mi WNW 10.4 mph 16.1 mph N/A   Scattered Clouds
1:55 AM 23.0 °F 10.6 °F 12.2 °F 63% 30.13 in 10.0 mi West 13.8 mph - N/A   Scattered Clouds
2:15 AM 23.0 °F 10.1 °F 12.2 °F 63% 30.13 in 10.0 mi WNW 15.0 mph 19.6 mph N/A   Scattered Clouds
2:35 AM 23.0 °F 11.1 °F 12.2 °F 63% 30.13 in 10.0 mi WNW 12.7 mph - N/A   Overcast
2:55 AM 23.0 °F 13.9 °F 12.2 °F 63% 30.13 in 10.0 mi West 8.1 mph 19.6 mph N/A   Overcast
3:15 AM 23.0 °F 10.6 °F 12.2 °F 63% 30.12 in 10.0 mi WNW 13.8 mph - N/A   Scattered Clouds
3:35 AM 23.0 °F 8.0 °F 12.2 °F 63% 30.11 in 10.0 mi WNW 20.7 mph 25.3 mph N/A   Clear
3:55 AM 23.0 °F 11.1 °F 12.2 °F 63% 30.13 in 10.0 mi West 12.7 mph - N/A   Mostly Cloudy
4:15 AM 23.0 °F 17.0 °F 12.2 °F 63% 30.14 in 10.0 mi WSW 4.6 mph - N/A   Overcast
4:35 AM 23.0 °F 14.7 °F 12.2 °F 63% 30.14 in 10.0 mi WNW 6.9 mph 18.4 mph N/A   Overcast
4:55 AM 23.0 °F 11.7 °F 14.0 °F 68% 30.14 in 10.0 mi West 11.5 mph 17.3 mph N/A   Overcast
5:15 AM 23.0 °F 12.4 °F 14.0 °F 68% 30.14 in 10.0 mi West 10.4 mph 23.0 mph N/A   Overcast
5:35 AM 23.0 °F 13.1 °F 14.0 °F 68% 30.15 in 10.0 mi West 9.2 mph 17.3 mph N/A   Overcast
5:55 AM 24.8 °F 15.3 °F 14.0 °F 64% 30.15 in 10.0 mi WNW 9.2 mph 20.7 mph N/A   Overcast
6:15 AM 24.8 °F 12.9 °F 14.0 °F 64% 30.15 in 10.0 mi NW 13.8 mph 21.9 mph N/A   Overcast
6:35 AM 24.8 °F 13.4 °F 14.0 °F 64% 30.16 in 10.0 mi WNW 12.7 mph - N/A   Overcast
6:55 AM 24.8 °F 13.4 °F 14.0 °F 64% 30.16 in 10.0 mi WNW 12.7 mph 19.6 mph N/A   Overcast
7:15 AM 24.8 °F 12.9 °F 14.0 °F 64% 30.17 in 10.0 mi WNW 13.8 mph 19.6 mph N/A   Overcast
7:35 AM 24.8 °F 11.9 °F 14.0 °F 64% 30.17 in 10.0 mi WNW 16.1 mph 20.7 mph N/A   Overcast
7:55 AM 24.8 °F 13.4 °F 14.0 °F 64% 30.18 in 10.0 mi WNW 12.7 mph 21.9 mph N/A   Overcast
8:15 AM 26.6 °F 13.8 °F 14.0 °F 59% 30.18 in 10.0 mi WNW 17.3 mph 25.3 mph N/A   Overcast
8:35 AM 26.6 °F 16.2 °F 14.0 °F 59% 30.19 in 10.0 mi WNW 11.5 mph - N/A   Overcast
8:55 AM 28.4 °F 18.0 °F 15.8 °F 59% 30.19 in 10.0 mi WNW 12.7 mph 20.7 mph N/A   Overcast
9:15 AM 26.6 °F 15.2 °F 14.0 °F 59% 30.19 in 10.0 mi NW 13.8 mph 20.7 mph N/A   Overcast
9:35 AM 26.6 °F 14.7 °F 15.8 °F 64% 30.19 in 10.0 mi WNW 15.0 mph 25.3 mph N/A   Mostly Cloudy
9:55 AM 26.6 °F 15.2 °F 15.8 °F 64% 30.20 in 10.0 mi NW 13.8 mph 21.9 mph N/A   Mostly Cloudy
10:15 AM 28.4 °F 16.2 °F 17.6 °F 64% 30.22 in 10.0 mi NW 17.3 mph - N/A   Overcast
10:35 AM 30.2 °F 18.5 °F 17.6 °F 60% 30.21 in 10.0 mi NW 17.3 mph 21.9 mph N/A   Mostly Cloudy
10:55 AM 30.2 °F 17.8 °F 17.6 °F 60% 30.20 in 10.0 mi WNW 19.6 mph 24.2 mph N/A   Mostly Cloudy
11:15 AM 30.2 °F 19.3 °F 17.6 °F 60% 30.20 in 10.0 mi WNW 15.0 mph 23.0 mph N/A   Scattered Clouds
11:35 AM 32.0 °F 22.5 °F 17.6 °F 55% 30.20 in 10.0 mi NW 12.7 mph 19.6 mph N/A   Scattered Clouds
11:55 AM 32.0 °F 22.1 °F 17.6 °F 55% 30.20 in 10.0 mi NW 13.8 mph 21.9 mph N/A   Scattered Clouds
12:15 PM 32.0 °F 20.8 °F 17.6 °F 55% 30.20 in 10.0 mi WNW 17.3 mph 26.5 mph N/A   Clear
12:35 PM 32.0 °F 20.5 °F 17.6 °F 55% 30.19 in 10.0 mi NW 18.4 mph 25.3 mph N/A   Clear
1:15 PM 33.8 °F 24.8 °F 17.6 °F 52% 30.18 in 10.0 mi NNW 12.7 mph 24.2 mph N/A   Clear
1:35 PM 33.8 °F 23.5 °F 19.4 °F 56% 30.18 in 10.0 mi NW 16.1 mph 24.2 mph N/A   Clear
1:55 PM 33.8 °F 23.5 °F 19.4 °F 56% 30.18 in 10.0 mi NW 16.1 mph 21.9 mph N/A   Clear
2:15 PM 33.8 °F 23.5 °F 19.4 °F 56% 30.19 in 10.0 mi NW 16.1 mph - N/A   Clear
2:35 PM 33.8 °F 22.8 °F 19.4 °F 56% 30.18 in 10.0 mi NNW 18.4 mph 23.0 mph N/A   Clear
2:55 PM 33.8 °F 23.2 °F 19.4 °F 56% 30.17 in 10.0 mi WNW 17.3 mph 26.5 mph N/A   Clear
3:15 PM 33.8 °F 23.2 °F 19.4 °F 56% 30.18 in 10.0 mi WNW 17.3 mph 24.2 mph N/A   Clear
3:35 PM 33.8 °F 23.9 °F 19.4 °F 56% 30.19 in 10.0 mi WNW 15.0 mph 20.7 mph N/A   Clear
3:55 PM 33.8 °F 27.0 °F 19.4 °F 56% 30.18 in 10.0 mi NW 8.1 mph - N/A   Clear
4:15 PM 33.8 °F 24.8 °F 19.4 °F 56% 30.17 in 10.0 mi NW 12.7 mph 16.1 mph N/A   Clear
4:35 PM 33.8 °F 23.5 °F 19.4 °F 56% 30.20 in 10.0 mi NW 16.1 mph 19.6 mph N/A   Clear
4:55 PM 33.8 °F 24.3 °F 19.4 °F 56% 30.21 in 10.0 mi NW 13.8 mph 19.6 mph N/A   Clear
5:35 PM 32.0 °F 22.5 °F 19.4 °F 60% 30.24 in 10.0 mi NW 12.7 mph 16.1 mph N/A   Scattered Clouds
5:55 PM 32.0 °F 22.1 °F 19.4 °F 60% 30.24 in 10.0 mi NW 13.8 mph 18.4 mph N/A   Clear
6:15 PM 32.0 °F 23.0 °F 19.4 °F 60% 30.25 in 10.0 mi NW 11.5 mph - N/A   Scattered Clouds
6:35 PM 30.2 °F 20.8 °F 19.4 °F 64% 30.26 in 10.0 mi NW 11.5 mph 16.1 mph N/A   Scattered Clouds
6:55 PM 30.2 °F 22.6 °F 19.4 °F 64% 30.27 in 10.0 mi NW 8.1 mph - N/A   Clear
7:15 PM 30.2 °F 23.4 °F 17.6 °F 60% 30.28 in 10.0 mi NW 6.9 mph - N/A   Clear
7:35 PM 28.4 °F 20.4 °F 19.4 °F 69% 30.29 in 10.0 mi NW 8.1 mph - N/A   Clear
7:55 PM 30.2 °F 24.3 °F 19.4 °F 64% 30.29 in 10.0 mi NNW 5.8 mph - N/A   Scattered Clouds
8:15 PM 28.4 °F 22.2 °F 19.4 °F 69% 30.30 in 10.0 mi NW 5.8 mph - N/A   Scattered Clouds
8:35 PM 30.2 °F 22.6 °F 19.4 °F 64% 30.30 in 10.0 mi NW 8.1 mph - N/A   Scattered Clouds
8:55 PM 28.4 °F 20.4 °F 19.4 °F 69% 30.30 in 10.0 mi NNW 8.1 mph - N/A   Scattered Clouds
9:15 PM 28.4 °F 23.3 °F 19.4 °F 69% 30.30 in 10.0 mi NW 4.6 mph - N/A   Scattered Clouds
9:35 PM 28.4 °F 23.3 °F 19.4 °F 69% 30.30 in 10.0 mi North 4.6 mph - N/A   Scattered Clouds
9:55 PM 28.4 °F 24.6 °F 19.4 °F 69% 30.30 in 10.0 mi NNW 3.5 mph - N/A   Scattered Clouds
10:15 PM 28.4 °F - 17.6 °F 64% 30.31 in 10.0 mi Calm Calm - N/A   Scattered Clouds
10:35 PM 28.4 °F - 17.6 °F 64% 30.30 in 10.0 mi Calm Calm - N/A   Scattered Clouds
10:55 PM 28.4 °F - 17.6 °F 64% 30.31 in 10.0 mi Calm Calm - N/A   Clear
11:15 PM 28.4 °F - 17.6 °F 64% 30.30 in 10.0 mi Calm Calm - N/A   Clear
11:35 PM 28.4 °F - 19.4 °F 69% 30.29 in 10.0 mi Calm Calm - N/A   Clear
11:55 PM 28.4 °F - 19.4 °F 69% 30.29 in 10.0 mi Calm Calm - N/A   Clear